KUIPER-00191

导读 | 豆包AI

KUIPER-00191是美国亚马逊“柯伊伯计划”卫星互联网项目中的一颗量产卫星,于2025年12月15日发射。该项目计划在近地轨道部署3236颗卫星,旨在为全球提供低延迟、高速的宽带互联网服务,与SpaceX星链形成市场竞争。作为项目组网阶段发射的卫星之一,KUIPER-00191将参与构建全球覆盖的太空互联网基础设施,推动项目服务落地进程,助力亚马逊完成大规模卫星星座组网目标。

基本信息
目录编号:
67143
目录名称:
KUIPER-00191
国际标识:
2025-301L
轨道中心:
EARTH
卫星名称:
KUIPER-00191
卫星全名:
KUIPER-00191
卫星状态:
在轨 (已飞行78 天)
发射日期:
2025-12-15 UTC
国别 :
美国 (US)
星等 :
--
轨道信息
数据来源 国际轨道数据
星历时间: 2026-03-03T04:00:02+0800
8小时前
查看轨道信息
半长轴: 6989.869km
偏心率: 0.0008968
轨道倾角: 51.899°
近地点辐角 42.779°
升交点赤经 103.642°
平近点角 64.872°
近地点: 605.463km
远地点: 618.001km
周期: 96.931分钟
每日圈数: 14.855909
详细信息
使用方式:
暂无
2D轨道图
3D轨道图
轨道高度分析图
轨道倾角分析图
轨道综合分析图
查看轨道综合分析图